Miscellaneous Local Product
Issued by NWS Hastings, NE

Home | Current Version | Previous Version | Text Only | Print | Product List | Glossary On
Versions: 1 2 3 4 5 6 7 8 9 10 11 12 13 14 15 16 17 18 19 20 21 22 23 24 25 26 27 28 29 30 31 32 33 34 35 36 37 38 39 40 41 42 43 44 45 46 47 48 49 50
000
AXUS43 KGID 220602
MISGRI

GID CWA HOURLY WEATHER ROUNDUP
NATIONAL WEATHER SERVICE HASTINGS NE
100 AM CDT FRI AUG 22 2014

NOTE: "FAIR" INDICATES FEW OR NO CLOUDS BELOW 12,000 FEET WITH NO
SIGNIFICANT WEATHER AND/OR OBSTRUCTIONS TO VISIBILITY.

...SOUTH CENTRAL NEBRASKA...

CITY           SKY/WX    TMP DP  RH WIND       PRES   REMARKS
GRAND ISLAND   FAIR      72  69  90 E6        29.93R
HASTINGS       FAIR      74  66  76 SE7       29.92F
KEARNEY        FAIR      72  70  94 SE6       29.93F
ORD            MOCLDY    71  68  90 CALM      29.93R
YORK           LGT RAIN  72 N/A N/A S3        29.91F
AURORA         FAIR      73  73  98 SE5       29.91F
LEXINGTON      CLEAR     71  69  94 N3        29.96R
HOLDREGE       FAIR      73  69  88 CALM      29.93S
HEBRON         FAIR      73  64  74 NW3       29.91R

...NEBRASKA PANHANDLE...

CITY           SKY/WX    TMP DP  RH WIND       PRES   REMARKS
CHADRON        MOCLDY    69  50  50 W7        29.99R
ALLIANCE       MOCLDY    67  51  56 SW7       30.04S
SCOTTSBLUFF    CLOUDY    66  55  67 N6        30.05R
SIDNEY         CLOUDY    71  55  56 SW9       30.09R

...WESTERN AND NORTH CENTRAL NEBRASKA...

CITY           SKY/WX    TMP DP  RH WIND       PRES   REMARKS
VALENTINE      CLEAR     71  60  68 E6        29.97S
AINSWORTH      CLEAR     66  62  86 E6        29.98R
ONEILL         CLEAR     68  65  88 N5        29.95R
BROKEN BOW     CLEAR     69  65  86 CALM      29.96R
IMPERIAL       PTCLDY    69  63  81 E5        30.00R
NORTH PLATTE   CLEAR     65  61  87 NE3       29.97R
MCCOOK         CLEAR     71  67  87 N6        29.96R

...EASTERN NEBRASKA...

CITY           SKY/WX    TMP DP  RH WIND       PRES   REMARKS
NORFOLK        FAIR      76  73  91 NW6       29.89S
SO SIOUX CITY  FAIR      77  74  90 CALM      29.86F
TEKAMAH        FAIR      75  72  90 S9        29.85F
COLUMBUS       FAIR      52 N/A N/A CALM      29.91R
ALBION         FAIR      73  70  88 CALM      29.92R
OMAHA EPPLEY   TSTM      78  74  87 E5        29.86F
OFFUTT AFB     FAIR      76  76 100 NE7       29.86R
MILLARD        FAIR      78  75  92 CALM      29.86F
LINCOLN        FAIR      79  74  84 NW6       29.87F
NEBRASKA CITY  FAIR      78  78 100 S6        29.83F
BEATRICE       LGT RAIN  77  76  95 W10       29.89S
FALLS CITY     FAIR      82  71  69 SW7       29.86S

...NORTHERN KANSAS...

CITY           SKY/WX    TMP DP  RH WIND       PRES   REMARKS
GOODLAND       PTCLDY    66  53  63 NE6       30.02R
HILL CITY      FAIR      77  67  71 NE6       29.91R
NORTON         CLEAR     73  66  78 CALM      29.92R
PHILLIPSBURG   CLEAR     75  66  73 N6        29.91R
SMITH CENTER   MOCLDY    73  66  78 E8        29.91R
HAYS           FAIR      81  64  57 SE9       29.90R
RUSSELL        FAIR      82  66  58 SE8       29.90R
CONCORDIA      FAIR      76  70  82 S10       29.88F
SALINA         FAIR      84  69  60 CALM      29.91F
TOPEKA         FAIR      85  73  67 S12G20    29.89F HX  91



USA.gov is the U.S. government's official web portal to all federal, state and local government web resources and services.